This demonstration page uses our WeatherBlox Daily Observations layout. Learn more.

Left ArrowRight Arrow

Hourly Observations for June 29, 2019

Temp ( °F °C ) Dew Point ( °F °C ) Humidity (%) Winds ( mph kmh ) Pressure ( in mb ) Visibility ( mi km ) Precip ( " mm )
12:51 am 00:51 Clear 85 29.4 50 10 30 30 E 13 20 29.86 1011 10 16 0.00 0.00
1:51 am 01:51 Clear 83 28.3 51 10.6 33 33 ESE 12 19 29.86 1011 10 16 0.00 0.00
2:51 am 02:51 Clear 81 27.2 50 10 34 34 E 9 15 29.85 1011 10 16 0.00 0.00
3:51 am 03:51 Clear 78 25.6 49 9.4 36 36 E 8 13 29.85 1011 10 16 0.00 0.00
4:51 am 04:51 Clear 77 25 48 8.9 36 36 E 6 9 29.85 1011 10 16 0.00 0.00
5:51 am 05:51 Mostly Sunny 76 24.4 47 8.3 36 36 WNW 8 13 29.85 1011 10 16 0.00 0.00
6:51 am 06:51 Sunny 82 27.8 50 10 33 33 N 5 7 29.86 1011 10 16 0.00 0.00
7:51 am 07:51 Sunny 87 30.6 48 8.9 26 26 Calm 29.88 1012 10 16 0.00 0.00
8:51 am 08:51 Sunny 91 32.8 49 9.4 24 24 SSE 10 17 29.89 1012 10 16 0.00 0.00
9:51 am 09:51 Sunny 94 34.4 47 8.3 20 20 SSE 7 11 29.88 1012 10 16 0.00 0.00
10:51 am 10:51 Sunny 95 35 46 7.8 19 19 VRB 6 9 29.86 1011 10 16 0.00 0.00
11:51 am 11:51 Sunny 98 36.7 46 7.8 17 17 SSE 9 15 29.85 1011 10 16 0.00 0.00
12:51 pm 12:51 Sunny 100 37.8 44 6.7 15 15 SSW 5 7 29.81 1009 10 16 0.00 0.00
1:51 pm 13:51 Mostly Cloudy 103 39.4 42 5.6 12 12 SE 6 9 29.77 1008 10 16 0.00 0.00
2:51 pm 14:51 Cloudy 103 39.4 40 4.4 11 11 undefined N/A 29.74 1007 10 16 0.00 0.00
3:51 pm 15:51 Cloudy 105 40.6 41 5 11 11 VRB 6 9 29.71 1006 10 16 0.00 0.00
4:51 pm 16:51 Cloudy 106 41.1 39 3.9 10 10 SSW 9 15 29.69 1006 10 16 0.00 0.00
5:51 pm 17:51 Mostly Cloudy 105 40.6 37 2.8 10 10 WSW 9 15 29.69 1005 10 16 0.00 0.00
6:26 pm 18:26 Mostly Cloudy 98 36.7 48 8.9 18 18 SE 22 35 29.61 1003 10 16 0.00 0.00
6:51 pm 18:51 Mostly Cloudy 97 36.1 48 8.9 19 19 SE 14 22 29.73 1007 10 16 0.00 0.00
7:51 pm 19:51 Mostly Clear 92 33.3 50 10 24 24 S 3 6 29.77 1008 10 16 0.00 0.00
8:14 pm 20:14 Partly Cloudy with Nearby Thunderstorms 91 32.8 49 9.4 24 24 ENE 12 19 29.71 1006 10 16 0.00 0.00
8:29 pm 20:29 Partly Cloudy 91 32.8 48 8.9 23 23 E 7 11 29.72 1006 10 16 0.00 0.00
8:51 pm 20:51 Clear 91 32.8 47 8.3 22 22 Calm 29.80 1009 10 16 0.00 0.00
9:51 pm 21:51 Clear 89 31.7 52 11.1 28 28 E 16 26 29.83 1010 10 16 0.00 0.00
10:51 pm 22:51 Clear 89 31.7 50 10 26 26 NE 16 26 29.85 1011 10 16 0.00 0.00
11:51 pm 23:51 Clear 89 31.7 49 9.4 25 25 NE 10 17 29.84 1010 10 16 0.00 0.00

Powered by AerisWeather